Temp
11 12 12 11 11 11 11 11 11 11 11 11 11 12 13 14 15 16 16 17 17 18 19 20 20 20 20 20 20 21 21 21 21 20 20 22 23 23 23 24 24 24 24 24 24 24 24 23 24 24 25 24 22 22 22 22 22 24 26 24 23 23 23 24 24 22 23 25 24 22 23 25 24 23 22 21 22 22 21 21 18 16 15 14 15 16 17 18
11 12 11 11 11 11 11 11 11 11 11 11 11 12 12 14 15 16 16 16 17 18 18 19 19 19 19 20 20 21 21 21 20 19 21 23 23 23 23 23 24 24 24 24 24 24 24 23 22 23 25 24 22 23 23 22 23 25 24 23 24 24 24 24 24 22 23 25 24 22 22 24 24 23 22 23 23 22 22 22 20 20 19 14 14 15 16 17
11 11 11 11 11 11 11 11 11 11 11 11 11 11 12 14 15 15 16 16 17 18 18 19 19 19 19 20 20 21 21 20 20 21 23 23 23 23 23 23 24 24 24 24 24 24 24 24 23 23 25 24 22 23 24 23 23 23 23 25 25 25 24 22 22 22 22 23 24 23 21 23 24 22 23 24 23 22 23 24 22 23 22 17 14 14 15 16
11 11 11 11 11 11 11 11 11 11 11 11 10 11 12 14 15 15 16 17 18 18 19 19 18 18 18 19 20 20 21 21 21 23 24 23 23 23 23 23 23 23 24 24 24 24 24 23 22 24 25 24 22 23 24 24 23 23 23 26 25 23 24 23 22 21 21 21 23 23 22 23 23 21 23 23 23 23 23 24 23 25 24 17 13 14 15 15
11 11 11 11 11 11 11 11 11 11 11 10 10 11 13 14 14 15 16 17 18 18 19 18 18 18 18 20 20 20 21 22 22 23 24 23 23 23 23 23 23 23 23 23 23 23 24 23 22 24 24 24 23 24 24 22 22 24 23 24 22 21 24 24 21 21 20 20 22 22 23 23 22 22 23 23 25 24 24 24 24 25 23 17 14 14 14 14
11 11 11 11 11 11 11 11 11 11 11 10 10 11 13 14 14 14 16 17 18 18 18 18 17 18 19 19 20 19 20 22 22 22 23 23 23 23 23 23 23 23 23 23 23 23 24 23 23 25 24 24 23 24 24 21 21 25 23 21 21 21 24 23 20 20 20 22 23 23 23 22 22 23 21 23 25 25 24 23 23 22 18 15 14 14 14 14
11 11 11 11 11 11 11 10 10 10 10 10 10 11 13 14 14 15 16 17 17 18 18 17 17 18 19 19 19 19 20 22 22 21 22 22 22 22 23 23 23 23 23 23 22 23 24 24 24 24 24 24 23 23 23 22 22 25 24 22 21 20 22 21 20 20 20 23 23 22 23 22 24 24 20 22 24 25 23 18 17 17 14 13 14 14 14 14
11 11 11 11 11 11 10 10 10 10 10 10 10 10 12 14 14 15 16 16 17 17 17 17 17 18 19 19 19 20 20 22 22 22 22 22 22 22 22 22 23 23 22 23 23 23 24 24 24 23 24 24 23 23 22 23 24 25 25 22 21 21 21 20 19 21 21 22 21 21 24 23 22 21 20 23 25 25 21 15 14 15 13 14 14 14 14 14
11 11 11 11 10 10 10 10 10 10 10 10 10 10 12 13 14 14 15 16 16 17 17 17 17 18 19 18 18 20 21 22 22 22 22 22 22 22 22 22 23 22 22 23 23 23 23 24 24 23 25 23 23 23 22 24 25 24 23 22 22 21 21 20 21 22 22 21 21 23 24 23 20 20 23 25 24 23 20 18 17 16 16 15 14 14 13 13
11 11 11 11 11 10 10 10 9 10 10 9 10 10 11 13 14 14 15 16 16 17 16 17 18 18 19 18 19 21 21 22 22 22 22 22 22 22 22 22 22 22 22 22 22 23 24 24 23 23 24 23 23 22 22 24 24 22 21 21 21 21 20 21 22 21 21 21 22 24 24 22 20 21 25 25 22 20 20 21 17 18 19 16 15 14 13 13
11 11 11 11 11 10 10 9 9 9 9 9 9 10 11 12 13 14 14 16 16 16 16 17 18 18 18 18 20 21 21 21 21 21 22 22 22 22 22 22 22 23 23 22 22 23 24 23 21 22 24 24 23 21 21 22 22 21 22 22 21 21 21 21 22 21 22 22 21 23 23 22 21 22 25 24 20 19 22 22 18 19 20 16 15 14 13 13
11 11 11 11 11 11 10 10 10 9 9 9 9 10 11 12 13 13 14 15 16 16 16 17 18 18 18 18 20 21 21 20 21 21 22 22 22 22 22 22 22 23 23 22 22 23 23 23 23 24 24 23 23 22 22 21 20 21 22 24 22 22 23 21 22 21 22 22 20 22 23 22 23 23 24 22 19 19 21 23 21 20 19 17 15 14 13 13
11 11 11 11 11 11 10 10 10 10 10 9 9 10 11 12 12 13 14 15 16 16 16 17 18 18 18 19 20 20 21 20 21 21 22 22 22 22 22 22 23 23 23 23 24 23 23 23 24 24 22 23 23 22 22 20 20 22 22 23 23 23 23 21 20 21 22 22 19 22 23 23 24 23 23 20 19 20 21 23 22 21 20 18 16 15 14 13
11 11 11 11 11 10 10 10 10 10 10 10 9 10 11 11 13 13 14 16 16 16 17 17 18 18 19 20 20 20 20 20 21 21 21 22 22 22 22 22 23 23 23 23 24 23 23 23 23 22 21 22 22 21 22 21 21 22 22 22 21 21 23 21 20 21 23 21 20 23 22 23 26 25 23 19 18 20 22 23 22 21 20 19 18 16 16 14
12 11 11 11 10 10 10 10 10 10 10 10 10 10 10 12 13 14 15 16 16 16 17 17 18 18 19 20 20 19 20 20 20 21 21 22 22 22 22 22 23 23 23 23 23 23 22 23 23 23 21 21 22 22 22 22 21 21 21 21 19 20 22 22 20 21 23 21 20 23 22 23 25 25 22 18 17 19 21 23 22 21 20 19 19 17 17 16
12 11 11 11 10 10 10 10 10 10 10 10 10 11 11 12 13 14 14 15 16 16 16 17 17 18 19 20 19 19 19 20 20 21 21 21 22 22 22 22 22 23 23 22 23 23 23 23 22 21 22 21 22 23 22 21 21 20 21 21 20 20 21 22 21 19 21 22 21 22 22 24 24 24 21 17 18 19 20 22 21 21 20 19 19 18 18 18
11 11 11 10 10 10 10 10 10 10 10 10 10 11 11 12 13 14 14 15 16 16 16 17 17 18 19 19 19 19 19 19 20 21 21 21 22 22 22 22 21 21 22 22 23 23 22 22 20 19 21 21 21 22 22 20 21 20 20 21 19 20 21 21 22 19 19 21 22 21 21 23 24 24 23 20 19 19 21 22 22 22 21 20 19 18 18 18
11 11 11 10 10 10 10 10 10 10 10 10 11 11 11 12 13 13 14 15 15 16 16 17 17 18 20 19 19 19 19 20 20 20 21 21 21 22 22 22 19 20 22 22 23 23 21 21 21 22 22 20 21 22 22 20 20 21 20 21 20 19 20 21 22 20 19 21 21 21 21 22 23 22 23 21 18 20 21 21 21 21 21 20 18 18 18 18
11 11 11 10 10 10 10 10 10 10 10 11 11 11 11 12 13 14 14 14 16 17 18 17 18 19 19 19 18 18 19 20 20 20 20 21 21 22 22 21 20 21 23 22 22 22 21 21 21 22 21 21 22 22 22 22 22 22 20 21 21 20 20 20 21 19 18 21 21 21 21 22 23 22 22 22 18 19 20 20 20 20 19 19 19 19 18 18
11 11 11 10 10 10 10 10 10 10 10 11 11 11 12 14 15 15 14 14 16 17 18 18 18 19 18 17 17 17 19 19 20 20 20 20 21 22 21 21 21 22 22 22 22 20 20 22 21 21 22 21 21 21 20 20 20 21 20 21 21 21 21 20 20 18 17 21 21 19 20 20 21 21 21 21 18 18 20 20 20 20 20 19 19 19 18 18
11 11 11 10 10 10 10 10 9 9 10 11 11 11 14 16 16 16 15 15 15 14 16 17 16 18 18 17 17 18 19 19 19 19 20 20 21 22 21 20 22 22 20 20 21 19 20 21 21 21 21 21 20 19 20 20 20 20 21 22 21 20 21 20 19 18 17 20 20 17 19 20 20 21 20 19 19 20 21 21 21 21 20 19 19 18 18 18
11 11 10 10 10 10 10 9 9 9 10 10 9 10 12 14 16 16 17 18 17 14 15 16 16 17 17 16 17 17 19 20 19 19 19 20 21 21 21 20 21 21 19 19 20 20 21 21 21 20 18 18 18 18 21 21 20 20 20 21 21 19 20 19 19 18 17 20 21 18 19 21 20 20 20 20 20 21 20 20 21 20 20 20 19 19 18 18
11 11 10 10 10 10 10 9 9 9 9 9 8 8 11 14 16 17 18 19 18 16 16 17 18 18 17 17 18 18 19 20 19 19 19 19 20 20 21 20 20 20 19 20 21 20 20 21 20 18 17 19 19 18 21 21 20 21 20 21 21 19 20 21 20 19 17 18 19 19 20 20 20 20 20 20 18 18 18 18 18 18 19 19 18 18 19 19
11 10 10 10 10 10 9 9 8 8 8 8 8 11 14 15 15 17 19 18 18 17 17 17 17 18 18 18 18 18 19 19 19 19 18 20 20 19 20 20 19 20 19 20 20 21 21 19 16 16 18 20 20 19 21 22 21 20 20 21 21 20 20 20 19 19 18 17 17 19 21 21 21 21 23 21 17 18 18 17 19 18 17 16 16 17 18 18
11 10 10 10 9 9 9 9 8 8 8 7 10 14 14 14 14 16 18 18 18 18 16 16 17 18 19 18 18 19 19 19 19 18 18 19 20 19 20 19 19 20 19 18 20 21 21 17 15 18 19 20 21 20 21 22 21 20 20 21 22 22 21 19 19 19 20 20 17 18 21 21 22 23 25 24 22 23 21 19 23 23 18 17 18 20 20 18
10 10 10 10 9 9 8 8 8 8 8 8 12 15 13 14 14 15 18 18 17 17 16 17 18 19 19 18 18 18 19 19 17 16 17 19 19 20 20 19 19 19 17 18 20 20 19 16 16 20 20 19 21 20 20 20 21 21 19 18 19 21 21 20 20 20 20 20 16 15 20 21 21 23 25 24 23 24 22 22 24 23 19 19 20 22 21 19
10 10 10 9 9 9 8 8 8 8 9 10 13 14 13 14 14 15 18 16 16 18 17 16 17 19 19 18 18 19 19 19 17 16 17 18 18 19 20 19 19 19 17 18 20 18 18 17 18 19 20 20 21 21 19 19 21 21 17 16 19 21 21 20 21 20 19 18 16 15 18 20 20 21 21 20 21 23 24 25 25 22 19 20 22 22 20 19
10 10 10 9 9 9 9 9 7 8 10 12 14 14 13 13 14 16 18 15 16 18 17 16 17 18 18 16 18 19 18 18 19 17 16 17 18 19 20 20 20 19 17 18 20 18 17 19 19 19 20 20 20 20 17 19 22 19 14 15 18 19 19 19 20 20 17 17 19 17 17 19 20 21 19 18 20 23 25 26 25 22 21 22 22 22 20 19
10 10 9 9 9 9 10 9 8 9 11 12 14 14 13 14 16 18 17 16 17 18 17 17 17 17 17 16 17 17 17 17 18 17 15 18 18 18 20 19 19 19 16 18 20 18 15 16 17 19 21 20 18 15 14 19 21 16 12 14 15 15 17 18 19 20 18 18 21 19 18 19 20 21 21 19 21 24 25 25 23 22 21 21 21 21 20 19
10 10 9 9 9 9 9 8 8 10 11 12 13 13 14 15 17 17 15 16 19 17 15 16 17 17 16 17 17 17 17 16 16 16 17 18 18 17 17 16 17 19 17 17 18 16 14 13 14 16 18 17 15 13 12 15 16 14 15 18 18 17 17 17 17 18 19 19 19 17 16 18 20 21 22 22 22 23 24 24 23 23 21 20 21 21 20 21
9 9 9 9 9 8 8 8 9 11 11 12 13 13 15 16 16 15 14 17 19 16 14 15 15 16 16 17 17 16 16 16 16 17 17 17 18 18 17 17 18 19 18 18 17 15 15 15 15 15 13 13 15 15 13 13 13 16 19 20 20 19 18 18 18 18 20 20 18 14 13 17 19 20 23 22 21 21 21 23 23 23 22 20 20 20 19 20
9 9 9 9 9 9 9 9 10 11 11 12 13 14 16 16 14 15 16 18 19 16 15 15 15 15 16 17 17 15 16 16 16 17 17 17 17 18 18 19 19 18 18 18 17 16 17 16 15 14 13 14 17 18 15 14 15 17 20 20 20 19 18 19 19 18 19 19 16 14 14 17 18 20 22 23 24 22 20 20 21 22 21 19 20 20 19 19
9 9 9 9 9 9 9 10 10 10 10 12 13 15 16 14 14 16 16 17 18 15 16 16 15 14 16 17 16 15 16 16 16 16 16 17 17 17 18 18 18 19 18 17 17 17 18 17 15 16 16 15 17 19 17 17 17 18 20 20 20 19 18 19 18 16 17 17 15 13 15 18 19 20 21 23 24 22 19 18 19 19 20 19 19 19 18 17
9 9 9 8 8 9 10 10 10 10 10 11 14 16 15 14 15 16 16 16 16 14 15 15 14 14 16 16 15 15 17 16 15 16 16 16 17 17 17 16 16 18 18 16 17 17 18 18 17 17 17 15 17 18 18 18 17 17 17 18 19 19 19 20 19 19 19 18 15 14 17 20 21 20 20 20 19 17 17 16 15 16 16 17 17 19 19 18
9 9 8 8 8 9 10 9 10 10 10 12 15 15 14 14 16 16 16 16 14 14 14 14 14 15 15 15 15 15 17 16 15 16 16 16 16 16 17 17 15 17 18 17 16 16 17 18 16 14 14 15 17 16 16 18 18 15 14 17 19 19 19 18 16 16 17 17 17 16 17 19 19 20 19 19 19 19 19 17 17 19 17 16 19 21 20 19
9 8 8 8 8 9 10 9 10 10 11 13 15 14 14 16 16 16 16 16 15 14 14 14 14 15 14 14 15 15 16 16 15 15 15 15 16 16 17 18 16 16 19 19 16 16 17 17 14 13 13 14 15 15 15 17 18 16 15 17 17 16 18 18 14 13 14 17 18 16 18 19 18 20 21 20 21 22 21 21 23 22 19 18 20 21 21 20
9 8 8 8 8 9 9 9 10 10 11 13 14 14 15 16 16 16 16 16 15 14 15 15 15 15 14 14 14 15 15 15 14 15 16 15 16 16 16 17 17 16 18 19 17 16 18 17 14 13 16 13 11 13 15 14 15 17 17 17 15 14 17 18 18 16 15 17 18 16 18 19 19 21 21 20 21 22 23 24 25 23 20 20 20 20 21 21
9 9 8 8 9 10 9 9 9 10 11 13 14 15 16 16 16 16 16 15 15 15 16 15 15 15 15 14 14 14 15 16 14 15 15 15 17 17 16 17 17 16 17 18 18 18 18 19 15 12 14 14 12 14 16 14 13 15 16 16 16 18 18 17 18 18 17 17 18 17 16 17 18 20 21 22 22 23 24 24 24 24 21 20 18 19 21 20
9 9 9 9 10 10 10 9 9 10 11 12 14 15 15 15 16 16 16 15 15 16 16 15 15 15 14 15 15 14 15 16 14 14 16 15 16 17 17 18 17 16 16 17 19 18 17 19 17 12 12 14 14 15 17 15 13 14 15 15 16 18 18 17 17 18 18 18 17 18 17 18 18 18 21 24 23 23 24 23 23 23 21 19 18 18 19 20
9 10 10 10 10 10 10 9 9 10 11 13 14 14 14 15 16 15 15 16 16 16 16 16 15 15 14 14 14 14 15 15 14 15 16 16 16 16 16 18 18 16 16 17 18 18 17 19 18 13 11 13 15 15 15 16 15 15 16 16 16 16 16 17 16 16 18 18 17 18 19 20 19 17 20 23 23 23 23 23 23 23 22 20 18 17 17 18
10 10 10 10 10 10 9 9 10 10 11 13 14 14 14 15 16 16 15 15 16 16 16 16 16 15 15 14 15 15 14 14 14 15 16 15 16 17 17 17 18 16 15 16 18 18 17 17 16 13 13 14 15 13 13 15 16 16 17 17 17 16 16 17 17 14 15 17 18 17 18 20 20 18 20 22 22 21 21 21 22 22 22 21 19 18 17 17
10 10 10 9 9 10 9 10 10 10 11 12 13 14 13 14 16 16 15 15 16 16 16 17 16 15 15 15 15 15 14 14 14 14 16 15 16 17 17 16 17 16 16 17 17 16 15 16 16 14 13 14 14 11 10 12 14 15 16 16 16 16 17 18 18 15 15 15 15 15 16 20 19 17 18 20 19 18 17 18 20 20 20 19 17 16 15 15
9 9 9 9 9 10 10 10 10 10 11 11 12 13 12 13 14 15 15 15 16 16 16 17 16 16 16 15 15 15 15 15 14 14 16 16 16 17 16 16 17 17 17 18 17 16 15 17 17 15 14 14 14 12 11 11 13 15 15 14 15 16 17 18 17 16 16 16 15 15 16 19 19 16 16 17 17 16 15 16 20 21 19 17 17 17 17 16
8 9 9 9 9 10 10 10 10 11 10 10 12 12 11 12 13 14 15 15 15 16 17 17 16 16 16 16 15 15 15 16 15 15 15 16 15 16 16 16 16 17 18 18 18 17 17 17 17 15 15 15 15 14 14 13 13 14 14 13 15 16 16 16 15 15 17 17 17 17 17 19 19 18 17 18 18 18 18 16 17 20 21 19 18 18 18 18
8 8 9 9 9 10 10 10 10 11 11 10 11 12 11 12 12 12 14 14 13 15 16 16 16 16 16 16 15 15 15 17 17 15 15 15 15 14 15 15 16 17 18 18 18 18 18 17 16 16 16 15 15 16 16 15 13 13 14 14 15 16 16 16 16 16 17 16 16 18 18 19 19 18 19 20 19 20 20 18 17 19 20 20 19 19 18 17
8 8 8 8 8 9 9 9 9 10 11 11 11 11 12 12 11 10 12 13 13 13 15 15 15 16 16 15 15 15 15 16 17 15 15 15 15 14 14 14 15 16 17 17 17 17 17 17 16 17 17 17 17 17 16 16 14 14 14 14 14 15 15 17 16 16 17 15 15 17 18 19 19 19 19 20 20 20 20 20 19 19 19 20 19 18 16 15
9 8 8 8 8 8 8 8 8 9 10 11 11 11 11 12 12 11 11 13 13 13 14 14 14 16 16 15 15 15 15 15 15 15 15 15 15 14 12 13 14 15 17 17 17 17 18 17 16 17 17 18 18 17 16 16 16 16 15 14 14 14 14 16 16 17 17 16 15 17 17 17 18 19 20 21 21 20 20 20 20 20 20 20 18 17 16 14
8 8 8 9 8 8 7 7 7 8 9 10 11 11 11 11 12 12 12 12 12 12 14 14 14 15 16 15 16 15 15 14 14 15 15 14 14 14 13 13 13 14 16 16 16 17 18 17 16 16 16 17 17 16 16 16 17 16 15 14 14 13 14 15 16 17 17 16 17 18 17 17 18 18 19 20 20 21 21 21 19 19 19 18 17 17 16 15
7 7 8 8 8 8 8 8 7 7 8 9 9 10 11 11 11 12 12 11 11 12 13 14 15 15 15 15 16 15 14 14 15 15 14 14 14 14 15 15 13 13 15 15 15 15 17 18 17 16 16 16 16 15 15 16 16 16 15 14 14 13 14 14 15 16 16 16 18 18 16 17 18 18 18 19 19 19 19 18 17 18 19 18 17 17 16 15
6 6 7 8 8 7 8 8 7 7 7 8 8 9 10 10 11 12 12 12 12 12 12 13 14 14 14 14 15 15 15 15 16 15 14 14 14 14 15 16 14 12 14 15 15 14 16 17 16 15 16 16 15 15 15 15 16 16 15 14 13 13 13 14 15 16 15 15 16 17 16 16 17 17 18 18 17 17 17 17 18 18 18 17 16 16 16 14
5 5 6 7 8 8 7 7 7 7 7 7 8 9 9 10 11 11 12 12 13 13 12 13 13 13 13 13 14 15 15 15 16 16 15 16 15 15 16 16 15 13 13 15 15 15 15 15 15 15 15 16 16 15 13 13 13 14 15 14 13 13 13 13 14 15 15 15 15 15 15 16 17 17 17 17 16 17 17 18 18 17 17 16 16 16 14 13
5 5 5 6 8 8 7 7 7 7 8 8 8 9 9 10 11 11 11 11 12 13 12 13 13 13 13 13 14 14 14 14 14 13 13 14 14 15 15 15 15 15 14 14 15 15 15 15 15 15 15 16 16 14 13 12 12 13 14 15 14 13 13 13 14 14 15 15 15 15 15 17 18 17 17 16 16 17 18 18 17 16 15 14 15 14 12 11
Height
764 766 768 770 771 772 773 775 776 777 778 778 779 779 781 782 783 784 785 786 787 787 788 789 789 790 791 792 793 793 793 793 793 793 792 790 789 790 790 791 792 792 793 793 794 795 795 796 796 795 795 797 801 803 804 805 807 809 819 828 830 836 832 826 829 830 826 822 822 824 822 823 825 826 824 825 826 828 830 829 830 830 829 829 827 825 826 829
763 765 767 769 770 772 773 774 776 777 777 778 778 779 780 781 782 784 785 786 786 787 788 789 790 790 791 792 792 792 792 792 793 792 789 789 789 789 790 790 792 792 793 793 794 794 795 797 795 795 797 800 804 804 805 806 807 814 824 829 828 829 824 820 822 824 823 820 820 823 823 822 822 824 824 826 829 829 830 829 830 829 827 829 827 826 827 829
762 764 766 768 769 771 772 774 775 776 777 777 778 778 780 780 782 783 784 785 785 786 787 788 790 790 791 791 791 792 791 792 793 790 786 787 788 789 790 790 791 792 792 793 794 794 795 796 795 796 799 803 806 805 807 808 809 816 822 824 823 822 820 820 821 821 821 820 821 823 824 824 822 824 824 826 829 830 829 827 828 827 825 828 829 828 828 830
761 763 765 767 769 770 771 773 774 776 776 777 777 778 778 779 781 782 783 784 784 786 786 788 790 791 792 791 791 791 790 794 791 785 783 786 787 788 789 790 791 791 792 792 793 794 794 795 795 796 800 805 808 807 808 809 811 816 819 820 820 821 820 819 819 820 821 821 821 823 825 825 823 824 824 826 830 831 827 823 823 822 822 828 830 829 829 830
761 762 764 766 768 770 771 772 773 775 775 775 776 777 777 779 780 782 783 783 784 785 786 788 789 790 791 790 791 789 792 797 789 780 783 785 786 788 789 790 791 791 792 792 793 794 794 795 795 798 802 806 809 808 810 810 811 815 819 820 820 822 819 817 820 820 821 822 822 824 824 823 824 824 824 825 827 826 821 818 818 817 819 824 826 828 830 831
760 761 764 765 767 769 770 771 773 774 775 775 775 776 777 778 780 781 782 783 784 785 786 788 788 789 789 789 790 789 793 795 784 780 783 784 786 788 788 790 790 790 791 792 793 793 795 796 798 801 804 807 810 809 810 812 811 814 819 821 822 822 818 818 820 820 821 820 821 823 822 823 825 824 826 824 820 818 815 815 816 816 819 821 823 827 828 830
758 760 762 764 766 768 769 771 772 773 774 774 774 775 776 777 779 780 781 782 784 785 787 787 788 788 788 789 789 790 792 788 781 782 783 784 786 787 788 789 789 790 791 791 792 793 795 797 799 803 805 807 810 810 810 811 811 813 818 820 821 822 819 820 821 820 821 818 820 822 821 824 824 824 828 824 816 815 816 817 817 817 820 822 824 826 826 827
757 759 761 763 765 767 769 770 771 772 773 773 774 774 775 777 778 779 780 782 784 785 786 787 788 787 788 789 789 791 791 785 781 782 783 784 786 786 787 788 788 790 790 791 792 793 795 797 800 803 806 808 808 810 811 811 812 812 815 819 820 821 820 821 822 820 820 820 822 823 821 824 825 826 827 821 814 814 816 818 818 818 820 823 823 824 826 827
756 758 760 762 764 766 768 769 770 771 772 772 773 774 775 776 778 779 780 782 783 785 786 786 787 787 788 788 789 792 788 782 781 782 783 784 785 786 787 787 788 788 789 791 791 792 795 797 799 799 803 807 806 809 810 811 814 813 815 819 819 821 821 821 821 820 821 822 822 822 823 824 826 828 822 815 813 814 817 818 819 819 821 822 822 823 825 826
754 757 759 761 763 765 767 768 769 770 771 772 772 773 774 776 777 779 780 781 783 784 785 786 786 787 788 788 790 792 784 779 782 782 783 784 784 785 786 786 787 788 789 790 791 792 793 794 796 796 799 805 807 811 812 811 812 813 817 820 820 822 822 821 820 821 822 822 823 822 825 825 825 828 820 813 813 815 816 818 820 819 819 820 821 822 823 823
753 756 758 760 762 764 766 767 768 769 770 771 772 773 774 775 777 778 779 781 783 784 784 785 786 787 788 788 790 789 781 780 782 781 783 784 784 785 785 786 787 788 789 790 791 791 791 792 792 795 799 803 807 812 813 811 811 814 815 818 822 822 822 822 821 822 822 823 824 822 825 826 826 826 817 813 815 816 815 816 819 819 818 820 821 821 822 822
752 754 757 759 761 763 765 766 767 768 770 771 772 772 773 775 776 777 779 780 782 783 784 784 786 786 787 789 788 784 780 781 781 781 783 783 784 785 785 786 787 788 788 789 791 790 792 791 791 796 801 802 807 813 812 812 814 815 814 817 823 822 822 823 822 824 822 823 825 824 827 828 826 820 813 815 817 816 816 815 817 818 818 820 821 821 821 820
750 753 756 758 761 763 764 765 767 768 769 770 771 772 773 774 775 777 778 780 781 782 783 784 785 786 788 788 784 781 781 781 781 782 783 783 784 785 785 786 787 787 788 789 790 790 792 791 792 796 799 802 809 811 809 813 815 816 818 819 824 826 825 825 825 825 822 824 824 824 831 826 819 816 813 817 818 816 817 815 816 816 817 818 820 820 820 819
749 752 755 757 760 762 763 765 766 768 769 770 770 771 772 773 775 776 778 779 780 782 783 784 785 786 788 786 781 781 781 781 781 782 782 783 784 784 786 786 787 787 788 789 789 790 791 791 792 796 800 804 807 809 811 817 818 820 823 826 833 834 827 825 827 825 822 826 823 823 832 824 814 813 813 818 819 818 816 814 815 815 816 816 817 818 817 816
748 751 754 757 759 761 763 764 766 767 768 769 770 771 772 773 775 776 777 779 780 782 783 784 785 786 789 785 780 781 781 781 782 782 782 783 784 785 786 786 787 787 788 789 789 790 791 792 794 799 804 805 806 811 818 821 822 826 827 833 843 839 828 826 827 826 823 825 824 824 831 825 815 812 814 819 820 818 816 813 815 815 815 815 815 816 815 813
747 750 753 756 758 760 762 764 766 767 768 769 770 771 771 773 774 776 777 778 780 782 783 785 785 786 789 785 780 781 781 781 781 782 783 783 784 785 785 787 788 788 788 790 790 791 791 793 799 804 806 808 811 814 822 828 829 832 831 833 841 839 833 830 827 828 827 825 825 826 829 824 816 813 815 819 818 817 816 814 815 814 813 813 813 813 812 811
747 749 752 755 757 759 761 763 765 766 768 768 769 771 772 773 774 776 777 779 781 782 783 784 784 786 787 783 782 781 780 780 781 782 783 783 784 784 785 787 788 788 789 789 790 792 793 797 804 807 808 814 816 815 826 837 835 835 836 835 841 841 837 832 828 830 830 828 828 829 829 822 815 813 813 815 817 817 815 813 812 812 811 811 811 811 811 810
746 748 751 754 756 758 760 762 764 766 767 768 769 771 772 773 775 776 778 779 781 783 785 785 785 790 788 782 781 780 778 779 781 782 783 784 785 785 786 786 788 789 790 792 793 794 797 802 806 808 812 818 818 816 823 832 830 830 833 832 838 842 840 836 830 830 831 829 830 832 832 824 815 815 813 813 818 817 814 813 812 810 810 809 810 809 808 808
745 747 750 752 755 757 760 762 763 765 766 767 769 771 773 774 776 778 779 780 781 783 785 783 783 788 786 780 779 779 778 780 781 782 783 784 785 785 786 786 789 790 794 798 798 798 801 805 809 813 816 818 816 813 815 819 819 822 829 828 829 833 836 836 831 833 834 831 832 832 831 826 818 816 812 811 816 817 814 814 812 810 808 806 806 805 806 807
743 746 749 752 754 757 759 761 762 764 765 766 768 770 773 773 776 781 782 780 779 779 780 779 778 780 780 778 779 779 779 781 782 783 784 784 784 785 787 788 791 793 798 800 801 803 804 808 813 813 813 813 813 816 818 820 820 823 829 828 829 830 829 833 833 835 835 831 832 836 833 829 822 817 814 812 816 818 814 812 809 806 805 803 802 801 803 804
742 745 748 751 753 756 759 760 762 763 764 765 766 768 769 767 771 777 781 781 778 777 777 777 777 778 778 779 778 778 779 782 783 783 784 784 784 786 790 792 795 799 803 804 804 805 806 811 812 808 810 812 815 819 819 820 823 824 826 825 831 834 830 833 835 835 836 831 833 840 835 828 823 818 814 813 813 810 808 807 805 802 802 800 799 801 802 802
741 744 747 750 753 756 758 759 761 762 763 764 765 766 766 764 765 767 771 777 777 775 777 777 778 778 778 779 779 778 779 783 786 784 784 784 784 788 793 794 797 803 806 806 806 809 812 812 808 808 815 817 820 821 815 817 822 825 829 827 829 836 834 834 835 835 837 831 831 838 834 823 820 818 814 811 808 802 801 803 801 800 799 796 797 799 801 800
740 743 747 749 752 755 757 758 760 761 762 763 763 764 764 763 764 764 765 772 776 776 776 777 777 778 779 779 779 779 779 783 786 784 783 784 786 789 792 795 800 804 807 805 806 813 816 810 807 814 818 814 819 822 815 818 824 825 829 827 830 839 836 831 832 836 839 837 836 837 832 822 817 817 810 806 807 803 802 803 800 801 797 793 796 799 797 797
738 742 746 748 752 754 756 758 759 761 761 762 762 760 761 762 764 764 765 772 777 776 775 775 776 777 777 777 777 778 780 782 783 783 783 783 787 790 791 796 801 805 807 805 806 809 810 811 814 817 815 811 815 821 817 816 824 829 827 824 827 833 833 833 836 837 838 841 841 836 829 820 813 813 804 799 806 804 801 802 795 795 796 794 797 797 794 794
736 741 744 747 751 752 755 757 758 760 761 763 760 758 761 762 763 764 766 775 779 777 776 775 775 775 773 775 776 777 780 781 781 781 781 782 786 790 792 795 799 804 809 809 809 807 807 815 816 813 814 813 814 818 818 816 822 828 825 822 823 823 828 836 837 836 836 838 843 842 833 820 811 809 801 795 799 795 795 798 789 785 792 795 794 791 790 790
735 739 742 746 749 750 754 756 757 760 761 761 757 758 762 761 764 764 766 782 785 778 779 776 775 774 771 775 776 777 782 782 780 780 781 783 783 785 792 797 798 804 810 809 808 809 810 816 814 809 811 814 814 817 819 819 823 826 827 829 829 825 827 833 832 834 837 840 848 851 840 830 818 806 799 798 799 795 793 793 785 783 790 792 791 788 788 788
734 737 740 744 746 748 752 753 755 758 760 758 754 759 762 760 766 762 770 796 791 772 775 778 775 771 769 774 774 777 786 783 780 782 781 783 784 784 791 798 798 802 807 807 808 812 812 813 813 810 810 814 815 815 818 820 821 825 832 834 830 826 828 833 832 834 842 844 849 852 845 842 831 811 807 811 807 799 793 786 781 784 789 789 787 786 786 787
733 736 739 742 744 746 749 751 753 754 754 754 754 759 760 761 766 762 776 801 787 765 769 774 771 768 769 774 773 777 782 779 780 785 783 783 785 785 790 795 795 800 806 805 808 814 813 810 810 809 811 814 814 815 821 819 817 827 838 838 833 832 834 836 835 838 850 848 843 847 848 846 834 812 812 818 809 798 789 783 782 783 785 785 783 784 785 786
731 734 737 740 744 747 749 750 751 751 752 753 755 758 759 762 764 765 784 793 772 760 766 768 768 770 772 775 776 778 779 779 782 784 783 784 785 785 790 795 796 801 807 805 805 812 816 815 814 809 807 812 817 826 829 819 817 832 842 840 839 843 842 841 839 838 848 848 839 842 845 841 829 809 806 813 806 795 787 783 785 783 783 784 783 783 783 784
730 733 736 739 742 746 748 750 750 750 753 754 755 757 759 762 765 778 796 783 758 762 769 768 769 771 774 778 781 781 780 783 784 783 785 786 785 787 792 796 797 801 806 808 809 815 819 819 819 816 813 816 823 832 835 827 826 833 834 833 835 841 842 844 847 843 846 846 841 849 851 844 835 812 799 801 796 791 787 785 785 782 782 784 782 782 782 782
729 732 736 738 740 744 747 749 749 750 753 753 755 757 758 765 773 786 792 767 752 768 773 771 773 771 772 774 779 783 783 786 785 783 787 789 789 791 793 796 798 803 809 810 813 819 819 817 819 820 822 824 822 826 833 834 834 830 825 827 833 840 843 845 849 848 848 844 844 859 861 851 842 815 793 794 793 793 793 788 785 783 784 786 783 782 783 783
729 732 736 738 740 743 745 747 746 749 752 752 755 756 758 773 782 779 772 756 754 766 766 767 772 772 771 770 775 783 784 786 786 784 787 791 793 793 793 794 795 806 815 814 815 820 818 817 821 821 823 822 815 821 833 835 833 828 824 830 836 846 851 848 852 855 851 847 851 861 858 847 835 811 793 791 786 787 793 791 788 787 788 788 785 783 784 785
729 732 736 739 740 742 744 746 746 748 750 752 755 755 760 778 779 765 760 756 754 758 757 760 767 770 771 772 778 783 781 785 786 786 788 790 793 795 793 794 793 797 808 814 818 820 819 820 822 819 819 819 812 817 828 831 831 827 824 828 834 848 856 853 860 865 853 848 856 862 854 838 822 805 795 788 781 785 793 793 792 790 790 790 788 786 787 788
730 732 736 738 740 742 744 745 746 748 749 751 753 756 765 775 765 753 756 756 754 757 757 759 767 772 771 771 777 778 778 786 788 786 790 792 796 797 794 795 796 792 800 814 818 818 820 819 816 814 815 816 813 814 817 820 827 830 829 829 830 836 841 843 848 848 841 845 856 859 846 824 806 799 796 791 790 793 793 794 796 794 794 794 791 789 788 788
730 733 736 738 740 742 743 745 746 747 750 750 751 758 765 764 753 748 751 752 755 760 760 761 766 772 775 776 778 776 775 784 789 789 791 792 793 794 791 792 797 795 795 808 816 817 818 815 814 818 819 815 814 816 816 817 825 837 838 833 830 827 828 844 857 853 850 851 851 849 836 817 805 797 792 792 790 788 786 789 791 788 792 794 790 787 787 788
730 733 735 737 739 740 742 744 745 747 749 748 751 758 755 745 739 740 740 743 752 757 761 766 768 772 778 780 780 779 775 780 788 790 792 792 790 790 788 785 790 792 787 794 810 816 816 816 819 822 820 819 819 818 818 816 820 833 836 830 833 833 828 842 862 869 864 850 841 842 828 814 810 796 787 791 788 782 783 782 779 781 787 789 786 785 787 786
729 731 734 736 737 739 741 743 745 748 749 747 749 749 740 732 732 734 735 739 748 751 755 764 768 770 776 779 780 779 776 779 788 789 789 794 788 784 786 783 783 786 782 786 799 805 807 814 822 822 818 822 827 822 820 821 821 827 830 826 832 837 832 833 844 857 863 851 839 839 829 817 816 802 789 791 789 783 781 776 774 777 782 785 787 787 787 785
727 730 733 734 735 737 740 743 745 747 749 750 747 739 732 732 733 732 733 738 744 747 749 758 763 764 770 774 776 778 775 778 787 788 788 792 783 775 780 781 780 783 782 783 789 794 799 806 821 830 824 823 826 821 820 825 826 823 823 823 825 829 833 836 839 842 852 853 839 835 836 827 819 807 789 785 786 781 779 777 776 775 778 785 788 787 786 786
725 730 732 731 734 737 739 743 745 747 750 750 745 736 730 731 732 730 731 735 739 743 747 753 757 762 767 767 770 776 775 775 785 787 784 786 781 773 773 773 777 782 783 782 785 791 796 800 815 831 829 824 823 820 818 823 828 826 824 827 825 824 827 832 837 835 837 846 841 832 828 815 807 805 791 779 780 778 776 778 778 776 779 785 788 787 786 785
723 727 729 729 732 736 739 743 746 748 748 741 734 732 731 729 729 730 731 732 734 739 743 748 753 759 764 767 768 771 773 774 781 781 777 780 778 774 772 769 773 781 784 785 785 790 796 796 807 827 833 827 820 817 815 815 821 823 822 826 827 828 831 830 836 838 832 836 841 835 822 802 796 799 788 777 777 777 777 777 776 776 777 781 784 785 785 784
721 724 726 727 730 734 739 744 746 747 742 733 728 730 732 729 727 729 732 732 732 735 737 741 747 751 757 764 765 767 771 775 778 777 774 775 773 769 767 765 768 778 785 788 786 787 793 798 808 825 829 821 815 817 818 814 813 813 813 816 817 821 829 829 834 842 838 833 835 837 826 799 788 791 784 777 777 779 781 780 778 778 775 776 780 781 782 783
721 723 724 726 728 731 736 741 743 742 738 733 730 730 731 730 727 729 732 733 732 734 735 737 743 747 750 755 759 762 768 772 776 775 770 769 766 763 763 763 765 771 777 782 783 785 793 800 808 819 821 817 817 823 826 821 816 813 812 812 812 814 817 818 824 834 840 839 839 845 834 799 783 789 787 782 783 785 789 786 780 780 779 781 783 782 784 784
723 724 724 725 726 729 735 741 743 741 737 734 732 732 733 732 730 731 732 733 733 734 735 736 739 743 745 749 754 759 762 766 770 769 764 765 764 760 762 764 765 768 772 776 780 785 790 794 801 814 819 817 816 820 824 824 820 815 813 814 814 813 811 812 819 824 829 832 834 844 835 800 783 791 790 787 789 788 790 788 781 778 780 784 784 782 782 783
726 725 724 726 727 728 731 734 735 733 734 735 733 734 737 734 732 732 731 732 734 733 733 735 736 738 740 744 749 753 755 759 764 765 762 763 762 760 762 763 764 766 766 767 770 776 783 788 797 811 819 818 817 818 817 818 818 813 810 814 812 810 815 819 823 826 824 821 821 828 823 797 784 789 787 786 787 783 784 787 783 778 777 780 781 781 782 783
727 728 726 725 726 727 727 727 728 728 732 737 736 734 736 736 736 736 732 732 736 734 732 734 735 735 738 743 746 750 750 749 753 761 763 763 763 762 761 762 763 762 759 760 762 766 776 784 789 797 808 811 809 806 799 801 812 813 810 812 810 808 813 813 818 826 822 818 819 814 804 793 787 787 784 782 783 782 780 782 782 780 779 779 781 781 783 784
725 729 730 728 727 728 727 728 731 731 732 735 736 735 735 735 737 739 736 734 737 736 734 735 734 734 739 743 746 751 751 747 749 756 759 759 759 761 762 761 761 760 759 761 762 766 774 780 780 780 785 785 781 782 782 786 801 807 804 807 809 809 809 808 815 820 812 816 820 804 792 792 790 787 784 781 781 781 779 778 778 780 780 779 780 782 785 787
721 724 727 728 729 731 732 732 733 733 732 731 732 732 733 734 734 737 738 735 735 736 736 736 735 734 737 742 745 749 750 750 752 753 754 756 756 760 764 763 762 761 760 761 763 766 772 776 777 776 774 769 768 775 780 781 786 792 796 802 807 807 808 809 809 802 799 812 811 793 792 796 788 784 783 777 776 778 777 776 776 776 777 778 780 783 785 787
720 721 721 721 725 730 731 731 732 735 734 732 730 730 732 735 735 734 736 738 738 736 735 737 736 733 733 736 740 745 749 752 754 751 751 755 757 760 763 764 765 763 761 763 764 765 769 772 773 775 775 770 772 778 781 779 779 782 788 795 800 804 807 806 800 791 794 801 790 779 791 791 777 777 779 773 773 773 770 771 775 776 777 779 781 782 783 786
721 722 721 720 723 727 727 727 733 737 736 735 734 732 732 735 735 731 732 738 740 738 736 735 732 731 734 734 734 739 745 749 750 749 750 753 755 758 759 760 764 765 763 764 766 766 767 767 768 774 776 772 775 781 780 778 780 782 785 790 795 800 801 797 791 785 786 788 779 777 790 784 770 772 776 772 773 774 771 773 776 775 775 777 780 780 782 784
723 723 722 721 723 726 727 728 733 737 738 738 737 733 731 732 732 731 731 734 735 736 736 733 730 731 736 737 734 735 737 736 737 741 745 750 754 756 754 753 758 765 765 764 767 769 767 767 769 774 777 774 775 781 781 780 780 780 783 789 793 797 798 794 787 781 784 790 785 784 791 783 769 769 772 771 772 775 775 775 774 771 771 774 777 778 780 782
724 723 723 723 722 724 727 728 731 734 736 737 735 732 731 730 728 729 730 728 727 731 732 730 731 734 737 739 736 734 735 734 733 736 737 740 744 745 745 746 750 759 764 763 764 766 768 771 772 774 778 774 769 774 783 787 787 786 786 788 792 793 792 787 782 780 783 787 787 790 792 778 764 764 768 769 771 773 772 770 769 769 771 773 774 775 779 781
724 724 725 724 722 722 725 728 731 731 729 730 729 728 728 727 726 729 733 730 727 728 729 729 731 734 736 738 735 733 734 736 736 739 739 739 739 739 740 743 745 749 757 761 762 763 765 767 769 773 777 772 767 774 785 791 795 792 781 774 778 782 780 779 781 780 779 779 782 785 778 762 756 762 767 768 769 768 764 764 766 767 770 773 774 775 779 781
Wind_Speed
18 19 18 15 15 15 14 14 13 13 12 11 10 11 13 14 16 16 16 16 16 15 15 15 14 12 11 9 8 9 7 7 7 8 9 8 11 10 7 11 10 6 5 4 5 6 3 1 2 4 6 4 3 1 2 2 3 4 4 3 1 3 4 5 7 7 4 4 6 6 6 8 5 2 1 2 4 3 2 3 3 3 2 2 7 5 12 25
18 20 19 15 15 15 14 14 13 13 12 11 10 10 12 14 15 16 16 16 16 15 14 14 13 11 10 8 8 7 6 6 6 8 14 11 8 10 8 8 9 6 5 4 5 6 5 2 1 4 5 3 2 2 2 1 3 4 3 3 3 6 5 5 7 6 3 3 5 5 4 6 6 5 3 2 1 1 2 2 5 5 4 4 4 5 20 26
19 20 19 16 15 15 14 14 13 13 12 11 10 10 12 14 15 15 15 16 16 15 14 13 12 10 9 8 7 6 5 4 3 8 15 13 9 9 8 8 8 6 5 5 4 5 6 4 5 5 5 3 1 2 3 1 1 2 4 2 5 6 4 4 6 7 4 3 6 5 3 3 3 4 2 4 3 1 4 5 1 4 7 2 1 10 20 22
20 18 18 17 15 15 15 14 14 12 12 10 9 10 12 14 14 14 15 16 16 15 14 13 11 9 8 8 7 6 5 1 3 6 10 13 12 9 9 9 8 6 6 6 5 4 5 5 5 5 5 3 3 2 3 1 1 2 4 4 6 4 2 4 6 6 5 5 7 4 4 2 3 3 2 6 6 3 7 7 7 9 8 6 4 8 16 19
21 18 17 17 16 15 15 14 13 12 11 9 9 10 12 13 13 13 14 15 16 15 14 12 10 9 8 7 7 8 5 2 4 6 9 13 12 10 10 9 8 7 7 7 6 5 5 5 5 5 4 2 2 3 1 2 2 3 1 4 5 4 1 3 5 4 3 5 5 5 5 4 2 1 3 9 7 6 7 8 10 10 10 12 10 11 14 15
22 19 17 17 17 15 15 15 13 12 11 8 8 9 11 12 12 12 13 14 15 15 13 11 9 8 8 7 7 7 5 1 2 5 10 13 12 11 11 9 8 7 7 8 6 5 4 4 5 3 3 3 2 3 3 2 2 3 1 2 4 4 1 1 0 2 3 8 7 6 4 3 4 1 2 8 8 8 7 6 9 7 8 13 14 13 12 13
22 19 17 17 18 16 15 15 13 12 10 8 7 8 10 11 11 11 12 13 13 14 12 10 8 8 7 7 6 3 2 3 2 6 11 13 12 12 11 9 8 7 8 9 6 5 4 5 4 4 4 3 3 3 3 1 5 4 2 1 2 4 2 2 2 0 4 8 6 5 3 3 5 3 1 5 9 8 6 5 4 6 11 13 12 12 13 14
22 19 17 17 19 17 15 15 12 12 10 8 7 7 9 10 11 11 12 12 12 12 11 9 7 7 8 8 6 2 2 4 3 9 12 12 12 11 10 9 8 8 8 9 8 6 5 6 5 4 4 1 4 3 2 3 5 3 4 3 1 1 2 4 4 5 5 4 2 5 4 3 4 4 1 7 11 8 5 2 2 8 11 11 11 12 13 13
22 20 17 16 19 18 16 15 12 12 10 8 7 7 8 9 10 10 11 11 11 11 9 8 7 7 9 7 5 2 4 5 6 11 12 11 11 10 9 8 8 8 7 7 7 8 6 5 5 5 4 3 4 4 2 3 1 2 4 3 3 2 5 4 4 5 4 2 3 6 1 5 2 2 3 8 9 5 2 5 4 8 8 9 10 12 13 12
22 20 18 15 17 19 18 15 13 12 9 8 7 6 8 9 10 9 10 11 10 10 8 8 8 8 9 4 4 3 5 5 10 13 12 11 10 10 9 7 9 8 7 5 6 9 6 6 6 5 5 2 3 3 2 3 3 3 6 5 5 2 4 4 3 4 3 1 2 6 3 6 3 1 4 6 5 2 5 6 3 7 8 9 8 10 13 13
22 21 19 16 17 19 19 16 14 13 10 8 7 6 8 9 9 9 9 9 9 9 7 8 8 8 7 3 4 4 3 5 11 13 12 10 9 9 8 7 8 8 7 4 6 8 5 8 9 6 2 2 4 3 1 2 4 6 7 5 6 5 2 4 3 2 3 2 1 7 4 5 4 1 6 4 5 2 6 5 3 6 6 8 8 8 10 13
21 21 19 17 16 16 17 16 14 13 9 8 9 8 8 9 8 8 8 8 8 8 8 7 8 9 5 0 3 5 3 6 11 12 11 10 8 7 6 7 7 7 9 5 7 8 4 10 11 6 1 4 5 2 2 2 5 5 6 5 6 8 4 3 1 3 2 2 2 4 2 4 3 6 7 2 5 4 3 5 5 7 6 6 7 6 7 12
21 21 20 18 15 13 14 14 12 11 9 9 10 9 8 8 8 7 7 8 9 9 8 8 8 8 4 1 5 6 4 7 11 11 10 9 8 7 6 8 7 6 8 7 8 8 6 9 9 6 3 5 3 2 4 4 3 2 4 5 2 7 4 3 2 3 0 1 3 3 2 6 7 11 7 1 4 4 2 7 7 7 6 6 6 6 7 11
20 20 20 18 15 13 13 13 10 9 9 9 9 8 8 8 8 7 7 8 9 9 8 8 8 6 2 2 4 5 6 8 11 10 9 9 8 8 6 6 5 5 6 6 8 7 5 8 9 6 3 4 3 2 5 5 4 2 3 3 3 2 4 6 2 0 3 0 4 5 2 7 8 11 7 5 1 5 6 8 8 7 7 6 6 6 7 10
20 20 20 18 16 14 12 11 10 8 7 8 7 7 8 7 8 8 8 9 9 9 9 8 9 6 1 4 3 4 7 7 10 10 9 10 9 7 6 6 6 7 7 6 8 8 7 9 8 5 1 2 4 6 4 4 4 4 3 1 3 3 4 8 3 3 5 1 5 6 2 6 8 10 7 4 1 7 8 8 7 7 7 7 7 7 7 9
21 20 20 18 17 14 12 11 9 7 7 8 7 7 7 7 8 9 10 10 9 9 8 6 8 6 2 2 1 1 5 6 9 10 9 11 9 6 8 9 8 9 8 7 9 9 7 7 5 3 3 3 5 7 4 4 4 4 3 2 2 3 3 5 2 2 2 0 3 3 3 4 4 7 7 4 5 4 5 7 7 7 8 8 7 7 7 8
23 21 20 19 17 15 13 11 9 7 7 7 7 7 6 7 8 9 9 10 9 8 6 4 6 4 0 1 0 1 4 6 10 11 9 9 8 8 10 7 5 7 8 7 7 5 5 5 2 0 3 3 3 6 5 1 3 3 2 2 3 3 3 2 3 3 2 1 1 1 2 6 7 7 9 5 4 3 4 8 8 7 7 7 7 7 7 8
24 22 20 19 18 15 14 11 9 8 6 6 6 7 8 9 10 9 10 12 10 7 4 2 5 3 3 3 2 3 4 8 10 10 9 7 7 8 7 4 4 6 6 5 3 2 3 4 2 2 3 3 2 5 5 5 5 5 3 3 2 2 3 3 3 3 1 2 2 1 2 10 12 10 11 8 1 3 8 7 8 8 8 8 7 7 8 8
25 23 21 20 18 16 14 12 10 8 6 6 10 13 11 11 10 7 7 9 7 4 2 2 5 4 4 5 2 2 5 10 11 8 7 7 7 7 6 5 6 6 5 2 1 1 2 3 4 3 3 3 6 6 7 7 8 9 6 5 5 3 4 5 4 4 2 3 3 5 5 8 11 11 11 10 2 2 8 8 8 9 9 9 8 8 8 8
26 23 22 21 19 16 13 11 10 8 7 12 19 15 8 7 6 3 1 2 3 4 2 3 5 3 1 2 2 7 9 8 6 5 7 6 7 8 5 5 6 6 3 4 2 1 3 4 3 5 7 8 8 6 6 5 6 8 6 5 4 4 2 3 2 5 0 4 4 4 5 8 10 12 13 11 5 4 9 10 10 11 10 10 10 10 8 8
27 25 23 22 20 16 13 12 10 8 10 20 21 9 3 5 4 4 2 3 5 4 0 2 3 2 1 1 6 8 6 4 1 2 6 5 7 8 1 3 5 3 0 3 3 2 4 5 7 7 8 7 6 7 7 7 7 6 6 5 2 2 2 2 1 5 3 1 3 2 3 9 11 12 12 10 9 9 11 11 12 13 11 11 10 10 7 7
28 26 25 23 20 16 14 13 10 10 15 21 15 3 3 3 4 10 8 1 5 4 2 1 2 2 1 3 7 3 3 3 1 1 4 4 3 5 1 4 6 4 1 2 4 2 2 4 8 6 5 7 6 5 8 7 6 5 4 6 3 2 2 3 2 4 5 0 4 5 5 9 10 10 12 12 11 12 10 9 10 11 11 12 9 6 7 7
30 28 27 24 21 17 15 13 9 12 18 18 11 5 4 3 6 12 8 4 3 2 2 3 2 2 1 1 6 2 3 4 5 4 4 5 2 3 4 5 5 5 2 4 6 5 3 6 6 5 7 9 6 3 8 7 5 4 4 5 3 2 1 1 3 4 4 2 1 3 5 8 8 7 11 12 11 10 8 7 10 9 12 14 6 3 7 8
32 30 28 25 22 19 15 13 10 14 18 15 14 13 7 6 8 9 4 4 2 2 1 2 2 4 3 2 5 5 2 2 5 5 6 7 4 2 5 5 5 5 3 5 8 8 5 5 2 7 6 8 7 4 7 7 2 1 3 6 4 3 4 3 2 2 3 4 3 4 5 7 5 5 8 8 5 6 5 5 9 9 10 10 5 4 8 8
34 31 29 27 22 20 16 13 12 16 16 12 17 18 9 7 7 5 4 3 1 1 2 1 1 4 6 4 4 5 3 1 2 4 6 8 6 4 3 2 4 5 4 5 7 6 4 3 4 8 5 6 8 5 5 7 3 1 3 6 7 7 7 3 2 4 4 4 4 4 3 6 6 5 7 6 6 7 5 5 11 11 5 3 4 7 9 7
35 32 31 28 23 22 17 9 12 17 12 11 19 19 9 6 6 3 4 4 2 2 1 3 2 5 8 4 3 4 3 1 2 1 5 6 4 3 3 1 2 3 5 5 4 3 1 2 4 7 6 6 7 5 5 6 6 2 4 5 6 7 8 6 4 4 1 3 3 4 2 5 7 5 8 7 8 11 10 9 13 11 3 2 5 7 6 6
34 34 32 28 26 25 14 6 14 17 7 10 20 19 10 7 6 3 5 5 3 3 4 2 0 7 9 4 5 6 3 4 1 3 3 3 0 3 4 4 2 2 3 4 2 2 2 3 5 6 7 6 6 4 5 6 8 3 3 6 8 8 8 6 5 4 2 3 4 4 3 2 6 6 7 6 7 11 12 12 14 9 5 4 6 6 6 6
34 34 32 29 27 23 14 10 18 17 6 6 17 18 10 9 7 3 5 2 3 2 4 2 1 6 5 1 4 5 2 3 4 2 1 4 1 3 3 5 5 5 1 4 4 3 1 4 4 5 6 4 4 4 5 8 6 3 3 7 7 7 7 5 6 4 1 1 4 4 2 2 6 7 5 4 5 9 11 12 12 9 7 6 7 6 6 7
36 34 32 29 26 21 15 12 17 20 11 8 16 17 12 11 6 4 4 2 1 2 2 2 3 3 2 3 3 3 1 1 2 3 2 4 1 4 3 5 6 7 3 3 6 2 1 3 6 6 5 4 3 1 3 5 3 4 6 8 6 6 6 5 5 4 3 2 4 5 2 2 5 7 4 2 3 7 9 9 9 9 8 6 6 6 5 5
35 33 31 31 27 20 14 10 16 22 13 8 16 18 14 9 4 4 3 4 2 1 0 2 3 3 5 7 1 1 2 1 0 1 3 1 2 6 2 2 6 7 4 6 4 1 2 1 1 3 3 5 4 3 1 2 4 8 7 7 7 6 5 4 3 4 3 3 6 6 3 1 3 6 4 3 4 6 5 6 7 7 7 6 4 4 5 3
34 32 32 32 27 23 14 6 16 20 11 11 18 17 11 5 2 5 6 4 3 2 1 1 2 4 10 12 5 1 3 2 0 4 3 1 3 4 2 2 4 5 4 4 3 4 4 3 0 0 1 4 6 5 4 4 5 7 5 5 4 4 4 4 4 3 1 5 6 5 2 2 3 6 5 5 7 6 5 5 7 7 8 7 3 2 3 2
33 30 32 30 26 26 15 5 16 19 12 17 18 10 6 4 1 5 4 2 3 3 5 5 4 5 11 11 6 4 4 2 1 4 5 4 3 3 3 4 4 3 1 3 1 3 2 1 2 3 1 4 6 5 4 5 4 5 5 6 4 2 2 2 3 0 3 6 4 3 1 2 6 7 8 10 10 8 7 7 7 7 6 7 4 2 2 3
32 30 31 29 25 27 17 7 17 18 14 19 13 4 4 5 6 8 5 3 2 2 5 6 3 6 10 8 5 4 3 2 3 2 2 4 4 4 3 3 5 5 3 4 4 2 1 4 3 1 1 2 5 6 4 1 1 4 5 5 4 3 2 2 4 2 4 4 3 3 2 3 5 5 9 13 10 6 6 7 8 7 5 5 6 4 5 6
31 30 30 27 25 26 17 11 17 16 15 17 7 4 6 5 8 9 7 5 2 1 3 5 6 7 8 7 5 6 4 0 3 4 2 4 5 6 5 4 3 5 4 3 3 5 4 4 3 4 2 3 5 4 6 6 3 3 4 5 5 5 4 4 4 3 4 3 3 4 1 3 3 2 7 10 8 6 6 6 6 6 6 5 6 6 5 6
30 30 28 24 23 26 17 11 15 17 15 11 5 6 9 8 7 8 8 5 2 1 3 3 8 9 6 1 1 6 4 1 3 4 4 5 6 7 6 6 5 4 6 6 3 3 4 5 4 2 2 4 5 2 4 7 2 1 2 5 3 4 5 3 3 5 3 1 2 2 3 5 4 6 9 7 7 8 7 6 5 4 5 4 4 5 5 6
30 29 25 21 23 26 19 11 13 16 12 7 7 8 9 9 7 5 6 5 4 6 7 5 4 6 5 2 1 6 1 2 5 4 4 4 3 6 7 6 6 6 6 7 3 2 3 3 4 3 2 2 2 2 2 3 3 2 3 3 5 4 7 5 2 1 3 1 3 1 4 5 4 6 9 6 8 10 8 8 7 4 4 6 5 6 6 7
29 24 18 18 23 26 21 12 11 13 8 5 9 10 8 9 5 4 5 6 6 8 10 5 2 4 6 4 4 7 2 2 4 3 4 3 2 6 7 4 5 10 8 4 2 3 5 1 4 2 1 2 1 1 4 3 3 5 3 5 4 2 4 4 2 2 4 2 4 1 5 5 2 4 7 5 5 10 9 9 9 7 2 5 5 6 7 7
26 19 11 16 24 25 22 14 9 8 5 4 10 10 6 6 3 4 6 7 7 7 7 6 3 4 7 7 6 8 6 4 5 4 4 4 4 6 9 4 4 9 9 3 1 2 5 3 4 1 2 3 4 3 2 4 3 4 4 3 4 3 2 2 2 2 1 3 4 4 4 4 4 5 5 2 7 8 9 9 9 10 5 3 4 6 7 7
20 12 5 15 25 24 23 16 6 5 4 5 11 9 4 4 3 3 7 8 7 6 6 5 2 2 5 7 7 8 7 7 8 6 4 5 5 5 9 7 3 8 9 5 3 3 4 4 3 2 1 2 4 1 4 1 3 3 2 2 3 2 4 3 3 4 3 3 3 4 4 3 6 6 6 8 9 8 8 7 7 9 6 4 6 7 7 7
11 5 2 15 25 24 23 14 4 4 6 8 11 6 1 3 2 2 5 6 4 3 5 5 3 4 5 4 5 6 6 6 9 7 5 7 5 5 7 8 5 7 7 4 3 3 2 3 4 2 3 1 2 3 7 7 5 3 3 4 2 1 2 2 1 3 4 4 3 2 4 6 6 4 8 11 9 8 8 6 7 8 7 5 6 6 6 7
5 2 3 16 27 26 20 10 3 5 6 8 9 3 1 1 2 2 3 2 2 2 4 6 6 6 6 4 4 5 5 4 7 6 4 6 7 6 6 8 8 9 6 3 2 4 3 2 4 2 0 4 4 3 4 6 6 6 6 7 7 4 4 3 2 1 2 3 4 3 4 8 6 4 7 8 7 7 7 5 6 7 7 6 6 5 5 5
2 1 4 20 33 28 16 5 2 3 3 6 5 2 1 1 3 4 3 1 2 2 3 4 5 4 5 6 6 7 7 4 6 6 4 8 10 7 5 6 10 12 10 6 3 3 3 4 4 3 4 5 4 3 1 3 2 3 4 5 6 5 5 6 5 3 2 1 2 4 2 8 5 4 6 6 5 6 6 6 6 6 6 5 5 5 4 4
1 2 5 24 38 28 11 4 2 2 4 3 1 2 2 1 2 2 2 2 2 2 2 2 3 3 4 4 6 8 9 6 7 9 6 6 8 6 5 8 11 12 10 6 4 2 2 4 4 1 3 3 4 4 3 2 2 1 4 3 5 4 4 5 5 4 4 3 3 3 3 7 4 1 4 6 5 4 4 6 6 1 2 2 2 1 2 1
1 2 1 22 37 24 8 6 7 8 7 1 2 1 2 1 2 2 3 3 2 3 4 2 3 4 3 4 6 9 11 6 5 9 6 4 5 4 7 11 11 11 9 6 6 6 4 3 4 3 1 3 4 3 3 2 2 4 4 3 5 5 6 4 2 3 2 5 7 5 5 8 4 3 3 5 5 3 4 6 4 1 3 4 3 3 4 4
3 1 3 10 21 14 5 4 5 8 6 4 2 4 2 1 0 1 2 3 1 3 4 2 2 3 3 4 5 7 11 7 4 6 5 2 3 3 6 12 11 10 7 4 6 7 6 4 5 6 6 5 6 6 5 4 3 1 2 5 7 8 10 6 3 4 5 6 7 7 8 6 3 4 4 4 3 2 5 5 3 2 2 3 3 3 4 5
3 2 1 2 4 3 2 2 3 3 5 5 4 4 5 4 2 2 1 2 2 2 2 0 2 4 3 5 6 5 10 8 2 4 7 6 4 2 4 10 12 10 6 7 8 7 4 3 6 9 11 12 12 9 4 7 7 5 7 9 9 10 12 9 4 5 7 3 4 11 12 7 6 5 5 5 4 5 5 2 3 5 5 5 5 4 3 3
2 2 3 2 1 0 1 1 2 3 3 6 6 4 8 9 3 1 1 1 2 2 2 2 2 3 5 8 7 5 10 9 2 4 8 8 3 1 0 4 8 9 7 8 8 6 4 5 9 10 13 14 11 7 5 9 11 13 14 12 11 12 13 11 10 12 8 4 7 14 9 9 13 9 8 9 7 6 6 6 6 6 5 4 3 3 2 2
1 1 1 2 1 2 2 2 6 5 3 6 3 2 8 10 6 4 2 1 1 1 2 1 1 5 8 10 8 5 7 8 5 4 6 5 3 1 2 1 3 5 6 6 5 5 5 7 9 9 13 15 7 5 6 9 10 12 14 15 15 15 15 15 18 18 11 8 15 13 11 13 19 11 10 12 9 7 9 8 5 4 4 2 2 2 0 1
1 1 1 1 1 3 3 4 8 7 6 7 3 2 7 10 11 9 2 3 1 2 2 4 6 8 8 8 8 7 7 8 8 7 5 5 4 3 3 1 1 1 4 5 3 3 4 5 6 7 10 14 8 6 7 9 8 8 11 14 15 16 18 20 21 22 18 15 17 12 9 15 18 9 10 11 9 8 8 5 3 5 6 5 5 5 3 3
1 1 0 0 1 2 3 5 8 7 5 6 6 5 6 9 13 10 3 5 7 4 4 8 9 7 6 6 6 6 8 10 10 9 7 6 4 3 4 4 3 2 3 5 3 2 3 4 3 6 5 11 8 7 8 9 9 8 9 10 12 14 17 19 20 20 16 12 14 13 10 14 12 6 8 10 7 6 6 6 7 10 10 8 7 5 5 5
1 2 1 1 1 4 5 4 5 5 4 5 6 6 8 12 13 10 6 6 7 6 7 11 9 3 3 5 6 6 8 8 7 8 9 9 7 6 5 5 6 7 5 5 4 3 4 3 1 5 4 7 6 9 9 5 3 4 7 8 12 13 15 17 16 14 11 12 14 13 11 13 9 6 7 7 6 7 9 10 10 10 8 7 7 7 6 6
1 1 1 0 0 3 5 4 5 5 4 5 7 6 7 10 8 8 6 4 5 6 6 8 8 4 2 5 8 8 7 7 5 5 6 4 3 3 3 3 6 9 8 7 4 3 6 5 2 4 5 7 6 7 8 6 4 4 9 13 17 16 15 14 9 9 12 13 12 11 12 16 12 7 6 6 7 10 12 11 9 8 7 6 6 7 6 6
Wind_Direction
181 184 182 182 185 186 185 183 184 182 181 177 176 183 189 192 196 201 205 205 204 205 208 211 215 222 227 233 237 239 245 236 238 219 212 239 231 224 220 212 221 232 218 205 190 193 184 108 130 126 118 87 20 27 51 35 71 58 83 102 161 183 202 186 178 194 175 186 201 210 184 142 157 209 172 51 51 74 67 5 324 319 337 305 290 296 155 160
181 187 187 185 185 185 183 182 181 181 180 177 177 182 187 191 195 201 205 206 205 205 205 207 212 219 226 232 232 236 238 227 236 236 230 235 225 215 218 214 216 223 211 190 194 185 157 130 130 99 79 59 358 18 56 8 76 85 110 116 212 202 205 194 175 191 180 175 183 190 188 157 166 168 133 173 267 47 128 291 341 329 301 345 340 147 152 160
183 190 190 187 185 182 181 180 178 181 181 178 178 179 186 191 194 200 205 207 206 206 205 205 208 216 223 222 225 229 218 211 245 253 240 226 209 210 215 215 210 209 201 179 180 170 148 147 138 103 62 63 359 31 83 19 61 138 121 120 236 211 217 231 185 197 215 161 156 183 185 155 178 160 149 177 180 202 194 217 288 269 259 294 58 143 152 160
185 191 188 184 183 180 180 181 181 184 184 182 178 182 190 192 194 202 206 206 206 206 206 206 208 214 216 213 213 208 185 145 255 232 221 207 203 210 211 212 206 201 191 169 167 158 127 118 111 87 70 69 339 22 113 279 219 141 124 171 227 190 192 231 195 215 224 166 159 162 128 141 219 168 151 146 138 270 246 221 198 209 212 178 181 164 158 164
186 190 186 182 181 181 181 182 184 183 187 186 180 188 193 192 197 204 207 206 206 207 208 209 213 213 210 207 205 195 157 65 252 199 184 192 197 207 207 204 201 194 179 167 170 153 121 101 85 64 66 95 5 48 140 271 111 111 148 193 200 155 149 222 192 212 182 137 129 131 147 172 171 139 154 150 160 232 235 220 209 204 184 167 175 173 167 172
186 190 186 182 180 182 183 183 185 182 188 190 182 191 193 194 200 204 208 207 207 209 211 214 215 207 206 205 196 190 165 174 260 167 172 182 188 199 199 198 193 183 174 174 172 145 118 72 74 92 67 84 124 121 169 293 71 126 243 224 202 184 181 320 183 243 144 127 141 162 174 142 122 190 186 171 196 223 228 230 220 208 170 162 162 165 173 181
188 189 188 183 180 183 186 184 185 183 187 189 183 189 191 196 201 204 207 207 209 208 211 216 212 207 203 186 173 168 200 257 266 158 167 170 182 194 191 195 187 176 176 173 164 139 118 91 105 144 87 81 160 138 156 26 45 104 161 232 200 186 188 359 19 42 131 137 174 173 131 134 162 179 108 212 233 238 254 286 235 173 148 151 156 171 184 188
189 189 188 185 181 182 187 186 184 185 190 189 182 185 192 199 202 204 206 210 213 207 209 209 207 209 193 168 150 100 268 254 195 165 169 169 182 190 187 192 182 179 181 181 177 156 137 128 151 152 95 165 164 125 149 80 44 96 160 198 120 134 298 349 37 68 92 121 147 119 126 223 200 162 141 240 247 251 252 355 94 138 141 157 169 182 189 194
190 191 189 187 183 181 186 188 185 187 192 190 183 187 195 201 204 204 204 212 215 208 206 199 205 208 188 168 121 127 230 228 184 173 175 176 183 188 187 187 181 183 179 192 191 165 163 164 180 173 145 190 138 124 164 111 182 173 132 143 100 3 329 5 50 49 54 64 92 114 136 295 244 187 262 247 247 255 141 77 91 132 147 179 181 187 190 196
190 191 188 188 185 184 188 188 187 189 193 193 186 186 196 202 204 205 204 209 213 209 204 195 202 199 190 175 109 168 231 201 184 181 179 182 185 187 188 187 185 186 176 186 185 166 179 187 178 155 129 139 117 118 159 143 184 148 107 102 79 4 325 19 64 18 24 46 90 135 184 297 322 315 263 262 285 288 134 105 112 151 171 193 191 196 196 201
191 191 189 188 186 190 193 191 190 188 189 191 187 187 195 200 201 205 204 204 206 202 200 195 196 193 194 176 141 195 234 183 184 181 181 186 187 190 193 194 190 193 185 170 187 186 191 176 152 119 124 164 121 90 228 154 113 118 117 93 14 357 359 22 71 353 10 80 99 132 155 299 345 294 225 251 336 351 171 163 169 187 203 207 203 206 200 212
192 192 191 189 188 193 197 199 197 190 185 186 196 200 195 195 197 203 199 194 199 195 193 191 191 190 183 166 202 218 225 184 184 180 183 187 187 191 194 197 196 201 197 180 198 198 173 163 136 99 204 153 124 116 172 100 88 111 104 96 345 1 27 347 47 312 353 120 253 130 129 288 238 234 221 213 2 30 184 218 226 223 231 227 219 220 211 223
189 192 191 190 191 191 195 200 198 191 187 188 206 211 198 196 194 196 188 183 191 186 184 184 187 184 158 253 232 225 220 189 185 184 185 186 186 188 188 193 193 199 203 199 194 177 155 167 141 112 127 110 124 181 120 72 72 114 65 93 34 14 354 311 27 317 155 130 296 144 212 272 246 249 238 293 10 70 221 244 243 241 242 243 231 228 229 228
186 191 192 192 191 188 191 197 197 196 193 193 209 210 198 196 191 183 173 176 183 178 178 176 176 169 143 255 239 223 218 193 187 186 183 185 176 173 175 176 178 174 183 184 170 153 149 160 131 104 98 94 132 115 63 30 29 88 58 54 62 92 266 302 340 174 148 310 4 104 193 270 266 272 271 300 333 159 219 241 236 244 243 244 237 231 241 234
185 189 192 192 190 187 189 194 197 199 192 190 206 210 194 188 184 170 164 173 174 172 171 166 169 151 88 279 267 219 211 193 187 187 180 178 165 160 162 147 139 132 135 145 141 128 128 134 109 88 88 22 90 91 52 20 17 46 99 331 352 161 256 309 298 166 154 284 25 92 209 272 274 278 280 314 71 166 217 245 248 253 249 246 242 235 243 246
186 187 190 191 190 189 190 192 198 197 190 191 203 209 189 169 166 162 163 167 163 165 158 155 171 152 102 261 287 191 202 192 187 185 177 175 170 154 145 134 122 121 121 121 123 115 100 96 75 85 114 64 90 102 71 40 359 359 100 181 238 165 256 313 297 243 160 199 10 76 215 264 287 283 285 337 67 126 227 261 266 257 255 251 245 242 243 256
187 187 188 190 190 191 192 195 199 196 197 202 199 195 173 146 149 156 155 150 144 144 132 139 167 155 356 243 85 222 199 188 183 179 175 176 174 154 140 125 109 114 107 105 115 99 56 50 51 93 70 70 109 103 88 57 264 287 62 133 212 178 193 281 287 290 45 107 270 18 241 250 272 287 288 304 49 35 283 270 271 260 256 252 244 249 243 248
188 188 187 189 190 192 195 196 200 200 205 206 177 156 138 121 124 134 138 133 121 108 89 107 137 146 254 218 196 215 180 172 171 168 169 167 162 153 140 115 109 105 85 75 77 57 28 27 66 103 45 60 136 117 141 204 199 190 176 149 192 201 197 234 253 246 62 83 210 177 262 262 271 280 282 283 327 310 277 268 275 272 264 257 248 245 240 242
188 189 188 188 189 192 195 195 200 204 206 179 146 132 113 100 100 105 131 134 120 118 151 199 152 155 226 217 195 145 141 154 158 160 160 152 146 135 108 94 97 95 98 91 49 45 70 52 69 123 138 168 188 169 172 196 174 170 175 147 151 171 223 238 252 264 161 126 217 215 225 263 273 278 281 284 296 275 277 281 280 273 269 264 254 243 241 240
190 190 188 188 188 190 192 195 201 206 196 161 142 128 111 109 99 79 159 191 194 164 145 212 184 158 289 257 135 121 125 133 145 161 157 158 148 125 76 51 60 63 110 151 149 75 91 124 178 185 186 191 188 165 136 142 138 137 131 114 139 163 230 250 276 305 192 144 249 239 237 263 268 273 275 280 299 285 272 274 269 264 263 261 255 253 247 242
191 191 190 188 186 187 191 195 199 198 182 162 149 133 156 159 125 154 185 284 240 193 113 262 178 131 338 154 148 141 122 96 60 148 157 168 150 142 59 29 96 87 228 163 138 48 83 157 210 208 193 176 156 140 111 92 88 100 130 125 114 169 222 256 241 315 343 169 270 353 310 267 260 268 273 278 287 269 251 251 257 259 260 259 256 256 251 248
192 192 191 187 184 187 191 194 196 185 172 164 158 160 223 187 124 155 150 129 234 202 157 210 89 46 339 154 172 171 65 92 109 243 174 153 129 164 182 67 129 161 253 128 113 80 100 211 228 213 167 114 96 111 98 86 88 87 113 127 134 193 240 291 297 330 4 84 271 354 343 274 261 261 265 263 259 257 249 239 248 256 260 261 255 246 241 245
192 192 189 185 184 186 187 190 187 176 171 170 177 192 196 174 142 153 140 100 200 203 123 166 139 118 41 163 199 185 74 137 171 228 201 146 129 175 133 104 135 140 148 164 147 143 172 247 237 175 144 118 92 86 96 86 82 89 106 129 165 239 148 239 291 329 6 65 258 347 325 282 277 275 267 260 255 266 273 259 254 247 250 260 262 233 231 231
189 189 187 184 182 181 182 178 169 175 179 186 201 192 154 132 153 157 122 76 160 217 243 196 164 164 154 164 188 165 123 154 167 194 189 153 141 149 143 138 131 130 175 174 150 157 198 259 166 120 130 132 120 118 125 121 89 74 137 138 160 199 173 188 273 339 359 14 41 25 331 293 302 317 282 277 298 292 286 295 281 259 249 267 293 267 245 233
186 186 186 182 179 175 169 162 167 179 182 199 211 195 153 123 149 144 92 74 175 277 309 229 177 192 178 143 167 172 140 154 203 195 180 160 145 133 152 141 127 162 185 142 133 165 220 266 130 118 99 111 127 153 170 151 132 272 214 173 172 173 165 161 51 58 34 348 353 24 347 289 312 320 275 286 333 306 298 325 291 273 259 263 280 267 260 255
183 184 183 179 174 166 158 161 181 178 176 212 207 188 169 146 144 132 87 63 272 263 181 178 155 182 178 148 156 146 106 244 269 122 143 155 146 111 137 137 76 169 176 140 133 172 220 1 93 125 116 106 123 159 196 153 124 199 230 167 147 132 129 136 112 89 107 252 312 38 126 264 309 296 266 293 325 303 298 299 281 279 294 181 230 250 259 269
182 182 180 177 171 165 160 158 174 167 167 225 200 179 177 169 153 149 76 48 284 208 148 187 356 166 173 174 155 134 161 225 119 79 107 137 167 52 121 179 121 145 175 131 133 220 155 73 69 96 97 103 127 165 196 146 125 201 220 124 121 117 128 142 116 103 199 234 327 13 121 235 294 264 264 314 324 299 291 282 275 285 304 260 250 254 254 255
183 181 178 174 172 177 183 160 163 172 181 197 179 172 169 160 155 126 90 97 253 152 142 211 156 148 152 123 124 117 210 207 125 181 351 88 139 41 105 192 159 142 152 124 174 254 114 143 162 122 95 121 175 202 180 128 112 225 185 117 118 119 126 123 99 93 27 2 315 314 128 188 273 271 296 343 314 287 278 272 278 292 292 270 268 272 259 249
182 179 176 172 172 186 194 176 174 185 187 155 161 167 156 151 150 87 93 184 205 88 138 148 131 140 114 114 111 74 27 36 122 220 359 82 94 45 123 191 138 120 50 89 164 227 45 185 191 136 124 176 195 228 163 121 97 178 136 96 77 76 80 78 89 98 45 5 255 251 189 190 267 285 309 347 272 262 265 273 281 287 286 275 278 281 272 264
178 176 174 170 171 179 179 190 195 186 183 161 157 156 144 141 134 110 176 218 150 117 146 144 177 164 131 141 151 15 99 45 6 95 35 80 31 30 108 152 99 105 36 37 95 249 321 283 189 112 142 182 143 89 87 93 125 137 111 75 60 37 37 47 53 81 63 298 255 247 231 166 272 280 257 216 218 223 247 293 297 310 328 317 290 277 272 269
176 175 174 171 174 176 166 199 201 182 178 168 153 146 133 102 73 144 193 219 123 109 82 143 198 144 151 164 173 148 102 34 305 131 124 148 53 47 119 119 75 79 46 39 38 333 354 28 322 284 139 131 98 71 36 29 89 109 91 88 84 4 10 25 359 43 122 255 260 263 254 156 223 260 251 245 253 232 217 267 287 312 340 330 303 240 250 246
177 175 175 176 179 179 173 203 185 168 166 164 150 140 132 106 181 193 204 190 153 186 175 179 205 174 168 165 149 146 126 79 173 146 144 147 145 170 169 170 153 101 145 183 137 348 14 46 296 317 261 145 110 83 44 8 24 76 94 102 98 359 7 351 311 339 219 246 269 284 252 205 233 246 258 267 268 246 216 221 248 265 302 320 309 241 277 296
179 176 177 182 183 179 177 176 169 160 158 161 147 91 107 137 200 210 209 191 198 198 156 156 165 150 153 149 150 159 122 133 182 140 130 132 154 207 238 194 148 121 179 180 125 114 311 309 310 37 294 200 142 131 127 211 218 131 137 129 128 128 107 255 266 280 258 258 295 295 251 255 270 261 251 256 259 248 225 224 235 243 255 288 298 303 318 305
179 178 179 183 184 181 175 161 168 164 156 159 146 102 138 175 206 202 204 212 237 44 105 130 116 120 149 157 183 175 119 162 174 119 109 123 143 201 231 231 158 101 114 143 148 163 180 271 230 170 227 197 171 175 151 144 149 174 161 131 145 158 157 203 217 210 245 274 306 298 257 202 226 277 256 253 270 282 264 251 248 248 241 250 285 298 296 282
177 178 179 180 184 185 176 159 170 171 160 156 150 157 175 200 206 200 198 195 207 60 61 100 116 131 167 117 233 192 146 164 176 121 147 165 172 194 197 204 194 126 127 158 201 165 162 246 259 272 274 162 170 226 117 109 108 232 124 104 157 185 140 142 184 175 178 320 298 260 240 213 214 281 280 281 301 296 286 289 281 251 222 205 240 253 249 256
174 175 177 179 185 188 180 159 164 174 170 154 162 179 199 206 194 190 181 154 151 135 105 83 96 134 168 100 199 214 150 113 159 149 184 196 205 198 191 200 192 178 166 157 174 168 154 260 305 341 343 96 165 250 92 118 175 165 131 170 209 173 113 116 216 53 82 258 272 229 252 288 326 294 290 312 305 296 300 299 286 254 185 171 197 215 229 246
170 170 173 180 189 192 184 162 156 171 172 160 180 192 208 211 184 147 152 133 139 139 125 135 161 145 163 160 188 202 179 113 154 171 189 194 238 200 194 227 193 185 192 153 159 198 155 196 320 35 98 323 291 115 50 33 120 125 174 208 188 122 88 109 181 1 43 243 274 272 245 285 324 278 315 345 274 276 289 285 283 282 216 168 202 225 236 249
167 164 168 186 191 191 184 172 156 161 150 160 201 210 207 208 189 134 141 131 135 140 138 163 172 139 168 178 186 187 174 164 175 185 174 184 244 203 176 203 199 189 201 167 163 212 139 144 314 19 160 305 349 97 71 356 55 127 183 177 119 141 172 96 150 181 129 232 278 300 277 265 207 230 301 291 218 238 261 267 274 277 264 172 195 237 247 255
161 160 172 192 190 186 183 178 154 144 149 172 204 219 197 182 215 185 157 134 127 139 155 180 170 122 171 175 167 174 182 180 173 179 179 183 236 220 176 186 197 187 192 159 157 199 141 151 258 311 243 302 11 120 193 222 39 56 97 102 82 135 166 159 156 165 170 195 253 307 318 271 224 215 214 222 223 215 225 249 263 267 263 205 200 221 233 238
158 155 165 185 187 184 178 171 130 150 182 193 202 214 149 160 204 211 176 143 123 147 168 183 166 143 163 168 159 172 184 179 169 179 198 185 208 242 199 187 176 174 170 120 126 173 139 166 207 305 340 212 199 219 190 168 146 126 128 157 184 79 111 157 144 122 139 160 191 279 298 267 247 208 192 216 234 220 212 235 261 270 273 249 226 217 221 231
156 139 152 176 179 173 161 154 159 178 192 211 207 198 32 183 146 161 197 142 105 133 143 153 159 156 155 153 170 178 163 161 173 182 207 198 201 229 212 182 158 148 141 120 164 176 154 166 168 143 300 205 222 260 188 175 173 169 179 190 184 157 127 153 233 227 121 146 169 178 258 265 252 205 199 214 225 221 212 216 251 277 282 282 285 263 238 241
123 87 162 173 171 161 149 152 193 179 208 222 203 127 71 163 136 153 182 125 102 100 102 130 150 157 162 164 172 170 155 157 180 185 211 213 206 216 216 171 145 149 158 164 188 176 131 112 122 156 221 215 240 288 200 187 156 147 209 204 173 165 143 153 204 221 128 168 155 121 253 273 261 197 207 227 231 231 220 203 224 267 273 278 295 284 248 226
74 47 154 169 166 156 147 172 179 206 233 231 154 63 51 79 116 140 164 171 163 128 108 142 161 167 179 168 156 164 169 175 190 195 208 220 218 218 194 161 146 154 164 163 168 164 119 115 127 207 301 310 312 335 21 56 82 185 242 189 156 181 150 143 180 173 154 193 155 104 263 270 280 219 224 254 269 273 242 208 198 242 329 322 328 28 67 72
140 351 117 169 170 164 159 182 191 206 208 115 82 142 23 46 136 134 162 186 190 141 141 166 183 175 170 150 149 172 181 178 200 208 205 210 229 214 169 168 163 163 177 190 181 177 189 167 132 118 16 348 334 337 336 295 197 207 224 164 155 149 111 104 126 115 187 215 165 157 240 251 270 332 318 301 320 325 259 239 215 92 23 353 353 40 55 45
142 296 346 177 178 180 186 172 185 202 183 104 138 179 143 70 227 76 146 158 153 151 155 188 187 142 127 145 143 170 185 180 180 204 207 216 251 248 177 178 181 184 195 187 154 161 186 182 148 156 178 198 209 211 224 212 178 201 199 166 174 156 144 162 137 123 230 224 160 185 236 240 258 317 315 314 329 269 245 256 248 224 285 295 296 333 10 32
141 163 305 198 189 211 216 106 109 175 167 154 182 184 166 179 275 341 110 149 172 149 114 343 156 121 120 154 146 165 199 204 147 159 197 207 219 270 201 181 189 196 171 124 136 146 143 184 193 193 200 206 209 207 166 127 140 202 204 178 181 181 175 172 134 171 212 177 168 220 232 234 238 247 258 262 246 229 229 230 234 243 261 262 253 275 333 15
141 145 174 169 48 14 322 6 162 175 166 176 186 183 183 190 196 15 330 216 184 137 65 25 124 156 166 162 159 178 201 207 172 152 196 206 200 338 32 167 195 200 155 136 161 138 104 208 214 205 218 225 215 199 165 144 166 199 199 185 186 188 181 177 192 211 193 133 235 232 208 229 243 222 220 242 238 236 242 229 228 239 247 250 258 281 341 18
157 89 154 134 108 177 197 219 195 195 195 187 181 159 185 192 184 179 216 259 162 145 169 189 220 202 183 167 166 176 185 197 208 198 194 188 167 78 48 73 224 201 153 153 184 136 129 217 215 196 227 240 213 161 178 176 181 198 197 191 190 187 184 191 210 219 190 180 239 230 165 210 241 222 206 230 228 228 242 235 226 246 257 257 263 265 253 109
83 30 293 37 89 183 169 145 161 181 197 193 202 185 178 189 196 198 158 94 165 253 188 200 222 211 194 175 167 169 173 184 208 216 188 161 168 150 124 154 247 191 145 150 186 165 158 218 211 179 222 245 223 167 181 186 188 206 204 195 191 189 193 200 212 221 211 208 237 236 184 221 244 220 202 228 227 227 251 266 262 256 246 223 209 206 176 155
81 13 265 100 112 149 143 136 148 165 183 188 212 222 195 195 201 202 170 151 188 205 187 205 215 198 185 182 176 192 194 187 199 206 172 145 171 181 175 189 175 125 151 160 175 216 199 217 191 142 202 254 233 183 196 197 192 209 213 201 196 195 202 210 217 222 218 220 241 249 243 250 252 191 194 230 222 212 244 250 239 241 234 214 199 184 161 152
120 9 44 139 171 148 151 153 151 161 175 187 201 200 203 213 207 197 201 200 197 193 191 204 205 147 124 171 190 223 217 195 201 204 179 166 180 191 196 191 155 143 168 182 167 167 186 212 68 111 177 253 227 187 197 187 164 232 241 215 201 200 207 216 219 218 208 209 229 241 248 255 246 181 196 224 190 190 226 230 229 237 230 209 192 176 161 150
144 359 345 137 206 162 161 155 158 172 180 192 195 181 196 216 202 182 201 234 228 216 201 194 187 153 145 193 209 222 205 177 184 198 187 168 146 166 182 171 158 156 162 172 169 158 169 178 151 143 188 248 238 176 157 122 97 254 242 219 207 205 213 217 219 227 216 204 213 222 228 243 242 196 200 219 185 201 224 225 223 225 215 200 183 165 154 146